MIDAS 4 DEB, 45468

Orbit data source: Space-Track

MIDAS 4 DEB, 45468 is space debris in LEO originally from a launch on Sat, 21 Oct 1961 UTC launched from the Air Force Western Test Range (AFWTR). Debris objects in space refer to the collection of defunct objects orbiting the Earth. Examples of debris include non-operational satellites, rocket bodies, and fragments generated from explosions, collisions, or faulty payload assembly.

Loading next visibility...
Identifier
45468, 1961-028N
Orbit
LEO
Last TLE update
4 weeks ago
Origin
Manufacturer
Unknown
Mission
Spacecraft
Bus & Motor
Unknown
Mass
Unknown
Launch date (UTC)
1961-10-21 (64 years ago)
Launch vehicle
Unknown
Launch site
Air Force Western Test Range (AFWTR)
Object type
Payload
Rocket body
Debris
Shape & HBR
Unknown
Radar Cross Section
Medium (>0.1 m² and <1 m²)

Expand to show TLE details & history

TLE from 4 weeks ago
0 MIDAS 4 DEB
1 45468U 61028N   25104.02930975 -.00000015  00000-0 -45327-2 0  9992
2 45468  95.8268 143.4405 0309801 292.7317  64.1075  8.68905312267145
Epoch: 2025-04-14T00:42Z
Definitive object data (Epoch: 2025-04-14T00:42:12.362Z)
Latitude
-0.00002°
Longitude
-69.56114°
Altitude
3,491.048 km
Speed
6.396 km/s
True Right ascension
09h 33m 45s
True Declination
0° 00' 00"
Sunlit
Object was in daylight at TLE epoch
Visualization TLE readout
Latitude
-58.41816°
Longitude
-54.74786°
Altitude
3,376.925 km
Speed
6.477 km/s
Apparent Right ascension
06h 13m 40s
Apparent Declination
-73° 01' 31"
Sunlit
Object is in daylight
Visualization observer readout
Local Sidereal Time
13:29:44
Azimuth
202.314° SSW
Elevation
-43.368°
Doppler factor
1
Orbital elements
Apogee altitude
3,923.617 km
Perigee altitude
3,304.499 km
Semi-major axis
9,992.195 km
Eccentricity
0.0309801
Inclination
95.8268°
RAAN
143.4405°
Arg. of periapsis
292.7317°
True anomaly
67.35434°
Mean anomaly
64.1075°
Eccentric anomaly
65.72559°
Mean motion
2.17296 °/min
BSTAR
-0.0045327
Orbital period
165.67 mins
Loading maneuver chart data...
Loading SW <> Apogee altitude chart data...
Loading historical data...
Loading historical data...
Loading historical data...
Loading historical data...
Loading historical data...
Loading historical data...
Loading historical data...

MIDAS 4 DEB Visibility forecast

Observer location: undefined°, undefined°

Span
Click to sort rows by Start time (UTC) header in descending order
Start Az.
Max El. time (UTC)
Max El. Az.
Max El.
End time (UTC)
End Az.
36 mins2025-05-09 12:08:05.482Z15.355° NNE2025-05-09 12:27:05.482Z87.369° E35.158°2025-05-09 12:44:05.482Z155.563° SSE
36 mins2025-05-09 14:52:05.482Z4.688° NNE2025-05-09 15:10:05.482Z294.452° NW40.542°2025-05-09 15:28:05.482Z220.387° SW
17 mins2025-05-09 17:38:05.482Z352.795° N2025-05-09 17:46:05.482Z326.765° NNW15.98°2025-05-09 17:55:05.482Z297.258° NW
28 mins2025-05-09 22:34:05.482Z97.185° ESE2025-05-09 22:48:05.482Z46.49° ENE26.01°2025-05-09 23:02:05.482Z359.607° N
37 mins2025-05-10 01:09:05.482Z166.296° S2025-05-10 01:27:05.482Z317.248° NNW44.971°2025-05-10 01:46:05.482Z350.976° N
26 mins2025-05-10 04:01:05.482Z243.112° WSW2025-05-10 04:13:05.482Z286.139° WNW21.152°2025-05-10 04:27:05.482Z333.664° NNW
|